Weather in Rogatin

Ukraine / Ivano-Frankovsk District     49°24′44″N   24°36′54″E
temp.,
°C
wind,
m/s
gust,
m/s
humid.,
%
clouds,
%
prec.,
mm/h
press.,
hPa
HPBL,
m
10 may, mon
mon1000:00+8ese22825 0.0 102311
03:00+6se22815 0.0 102316
06:00+5se22835 0.0 102223
09:00+11se59705 0.0 1022331
12:00+16se79615 0.0 1021730
15:00+18se78575 0.0 1020941
18:00+18se69675 0.0 1019768
21:00+12ese412835 0.0 1020249
11 may, tue
tue1100:00+11se514780 0.0 1020298
03:00+9ese514810 0.0 1020293
06:00+8ese615810 0.0 1020332
09:00+12se714730 0.0 1020526
12:00+16se811610 0.0 1018844
15:00+18se89560 0.0 10171021
18:00+17ese610640 0.0 1016960
21:00+12ese614660 0.0 1016333
12 may, wed
wed1200:00+11ese616700 0.0 1015386
03:00+11ese514840 0.0 1014327
06:00+10ese412940 0.0 1013253
09:00+14ese7118335 0.0 1012655
12:00+12ese91183100 0.1 1012675
15:00+12se8127493 0.1 1012709
18:00+12se610768 0.0 1011651
21:00+9se512880 0.0 1010455
13 may, thu
thu1300:00+7ese513920 0.0 1009433
03:00+7ese6159264 0.0 1007560
06:00+8se7118899 0.0 1005484
09:00+10se788694 0.0 1004462
12:00+15se777537 0.0 1003747
15:00+16s6776100 0.6 10031013
18:00+12se3594100 0.4 1004235
21:00+11se3797100 0.5 1004211
14 may, fri
fri1400:00+11sse289792 0.0 1005246
03:00+9sse2296100 0.0 100523
06:00+8sse119574 0.0 100610
09:00+11s2493100 0.1 1006131
12:00+13s4786100 0.3 1007449
15:00+17ssw3668100 1.4 10071186
18:00+17sw356871 0.6 10081075
21:00+11w228545 0.9 100915